CW3467 Weather Reports


Display with metric or nautical units.
time (UTC)temp
F
wind
direction
speed
MPH
gust
MPH
rain 1hr
in
rain 24hr
in
rain mn
in
humidity
%
barometer
mb
20260502190504 57 0 0.0 0.0 0.00 0.06 0.06 83 1019.4
20260502190005 57 230 0.0 1.0 0.00 0.06 0.06 84 1019.5
20260502185504 58 231 0.0 1.0 0.00 0.06 0.06 84 1019.4
20260502185004 58 238 0.0 1.0 0.00 0.06 0.06 85 1019.5
20260502184525 58 234 0.0 1.0 0.00 0.06 0.06 84 1019.2
20260502184004 58 215 0.0 1.0 0.00 0.06 0.06 86 1019.5
20260502183504 58 187 0.0 2.0 0.00 0.06 0.06 85 1019.4
20260502183004 58 204 0.0 2.0 0.00 0.06 0.06 84 1019.4
20260502182504 58 223 0.0 2.0 0.00 0.06 0.06 84 1019.1
20260502182004 58 238 0.0 1.0 0.00 0.06 0.06 85 1019.1
20260502181505 58 230 0.0 1.0 0.00 0.06 0.06 85 1019.5
20260502181025 58 215 0.0 1.0 0.00 0.06 0.06 85 1019.5
20260502180504 58 221 0.0 1.0 0.00 0.06 0.06 84 1019.5
20260502170504 60 227 0.0 1.0 0.00 0.06 0.06 83 1019.6
20260502164004 59 174 0.0 1.0 0.00 0.06 0.06 83 1019.9
20260502163504 59 183 0.0 1.0 0.00 0.06 0.06 84 1020.3
20260502163004 59 176 0.0 1.0 0.00 0.06 0.06 83 1020.2
20260502162504 59 214 0.0 2.0 0.00 0.06 0.06 84 1020.3
20260502162004 59 243 0.0 2.0 0.00 0.06 0.06 85 1020.4
20260502161504 59 234 0.0 2.0 0.00 0.06 0.06 86 1020.3
20260502161004 59 201 0.0 2.0 0.00 0.06 0.06 87 1020.3
20260502160504 59 176 0.0 2.0 0.00 0.06 0.06 88 1020.5
20260502152004 60 192 1.0 2.0 0.00 0.06 0.06 86 1020.6
20260502151504 60 174 1.0 2.0 0.00 0.06 0.06 85 1020.7
20260502151004 60 188 0.0 2.0 0.00 0.06 0.06 84 1020.7
20260502150525 60 203 0.0 2.0 0.00 0.06 0.06 84 1020.8
20260502130504 58 212 0.0 2.0 0.00 0.06 0.06 95 1022.4
20260502123504 57 192 0.0 2.0 0.01 0.06 0.06 100 1022.5
20260502123004 56 195 0.0 2.0 0.01 0.06 0.06 100 1022.5
20260502122504 56 194 0.0 2.0 0.01 0.06 0.06 100 1022.7
20260502122004 56 169 1.0 2.0 0.01 0.06 0.06 100 1022.7
20260502121525 56 165 0.0 2.0 0.01 0.06 0.06 100 1022.9
20260502121004 55 173 0.0 2.0 0.01 0.06 0.06 100 1022.9
20260502120504 56 156 1.0 2.0 0.01 0.06 0.06 100 1023.1
20260502115504 56 174 0.0 2.0 0.01 0.06 0.06 100 1022.9
20260502115025 56 187 0.0 3.0 0.01 0.06 0.06 100 1023.0
20260502114504 56 67 1.0 6.0 0.00 0.05 0.05 97 1023.1
20260502114004 56 68 1.0 6.0 0.00 0.05 0.05 96 1023.2
20260502113504 57 56 0.0 2.0 0.00 0.05 0.05 94 1023.1
20260502113004 57 257 0.0 1.0 0.00 0.05 0.05 93 1023.3
20260502112504 57 242 0.0 2.0 0.00 0.05 0.05 92 1023.3
20260502112004 57 202 0.0 2.0 0.00 0.05 0.05 91 1023.2
20260502111504 57 210 0.0 1.0 0.00 0.05 0.05 91 1023.1
20260502111004 57 225 0.0 1.0 0.00 0.05 0.05 90 1023.1
20260502110504 57 204 0.0 2.0 0.00 0.05 0.05 90 1023.3
20260502110004 57 191 0.0 2.0 0.00 0.05 0.05 90 1023.3
20260502105504 57 206 0.0 1.0 0.00 0.05 0.05 91 1023.5
20260502105004 57 226 0.0 1.0 0.00 0.05 0.05 93 1023.4
20260502104525 56 226 0.0 1.0 0.00 0.05 0.05 93 1023.4
20260502104025 57 232 0.0 1.0 0.00 0.05 0.05 94 1023.5
20260502103504 56 232 0.0 1.0 0.00 0.05 0.05 94 1023.2
20260502103025 56 222 0.0 1.0 0.00 0.05 0.05 94 1023.3
20260502102504 56 169 1.0 3.0 0.00 0.05 0.05 95 1023.3
20260502102004 56 147 1.0 3.0 0.00 0.05 0.05 95 1023.6
20260502101525 56 154 1.0 3.0 0.00 0.05 0.05 94 1023.6
20260502101004 56 165 0.0 2.0 0.00 0.05 0.05 93 1023.6
20260502100504 56 230 0.0 1.0 0.00 0.05 0.05 95 1023.7
20260502091504 55 242 0.0 1.0 0.00 0.05 0.05 100 1023.7
20260502091004 55 122 1.0 3.0 0.00 0.05 0.05 100 1023.9
20260502090504 54 119 1.0 3.0 0.00 0.05 0.05 100 1023.8
20260502071504 53 238 0.0 1.0 0.02 0.05 0.05 100 1023.9
20260502071004 54 0 0.0 0.0 0.02 0.05 0.05 100 1024.0
20260502070524 54 0 0.0 0.0 0.02 0.05 0.05 100 1024.0
20260502070004 54 251 0.0 2.0 0.03 0.05 0.05 100 1024.0
20260502065504 54 251 0.0 2.0 0.05 0.05 0.05 100 1023.9
20260502065003 54 0 0.0 0.0 0.05 0.05 0.05 100 1023.9
20260502064504 54 0 0.0 0.0 0.04 0.04 0.04 100 1023.9
20260502064003 54 0 0.0 0.0 0.03 0.03 0.03 100 1024.0
20260502063503 54 230 0.0 1.0 0.03 0.03 0.03 100 1023.9
20260502063004 54 237 0.0 1.0 0.03 0.03 0.03 97 1023.8
20260502062503 54 238 0.0 1.0 0.03 0.03 0.03 97 1023.8
20260502062003 55 203 0.0 1.0 0.03 0.03 0.03 97 1023.9
20260502061526 54 203 0.0 1.0 0.03 0.03 0.03 96 1023.7
20260502061003 54 0 0.0 0.0 0.03 0.03 0.03 95 1023.7
20260502060503 54 0 0.0 0.0 0.03 0.03 0.03 94 1023.8
20260502060004 55 0 0.0 0.0 0.02 0.02 0.02 93 1023.5
20260502055503 54 0 0.0 0.0 0.00 0.00 0.00 92 1023.5
20260502055004 54 243 0.0 1.0 0.00 0.00 0.00 91 1023.7
20260502054504 54 243 0.0 1.0 0.00 0.00 0.00 92 1023.5
20260502054003 55 199 0.0 1.0 0.00 0.00 0.00 92 1023.3
20260502053503 54 205 0.0 1.0 0.00 0.00 0.00 93 1023.4
20260502053003 54 199 0.0 1.0 0.00 0.00 0.00 93 1023.2
20260502052504 54 207 0.0 1.0 0.00 0.00 0.00 93 1023.6
20260502052004 54 223 0.0 1.0 0.00 0.00 0.00 93 1023.4
20260502051503 54 223 0.0 1.0 0.00 0.00 0.00 94 1023.4
20260502051025 54 0 0.0 0.0 0.00 0.00 0.00 93 1023.4
20260502050503 54 0 0.0 0.0 0.00 0.00 0.00 93 1023.5
20260502050025 54 228 0.0 1.0 0.00 0.00 0.00 93 1023.6
20260502045503 54 236 0.0 1.0 0.00 0.00 0.00 92 1023.5
20260502045003 54 238 0.0 1.0 0.00 0.00 0.00 92 1023.5
20260502044504 55 238 0.0 1.0 0.00 0.00 0.00 90 1023.4
20260502044003 55 238 0.0 1.0 0.00 0.00 0.00 89 1023.5
20260502043524 55 234 0.0 1.0 0.00 0.00 0.00 88 1023.6
20260502043003 55 0 0.0 0.0 0.00 0.00 0.00 87 1023.5
20260502042503 55 0 0.0 0.0 0.00 0.00 0.00 86 1023.4
20260502042004 55 0 0.0 0.0 0.00 0.00 0.00 87 1023.4
20260502041503 55 238 0.0 1.0 0.00 0.00 0.00 87 1023.4
20260502041003 55 238 0.0 1.0 0.00 0.00 0.00 87 1023.5
20260502040503 55 0 0.0 0.0 0.00 0.00 0.00 87 1023.5
20260502040025 55 235 0.0 1.0 0.00 0.00 0.00 87 1023.6
20260502035524 55 234 0.0 1.0 0.00 0.00 0.00 88 1023.7
20260502035004 55 233 0.0 1.0 0.00 0.00 0.00 87 1023.6
20260502034504 55 0 0.0 0.0 0.00 0.00 0.00 88 1023.5
20260502034024 55 191 0.0 1.0 0.00 0.00 0.00 87 1023.6
20260502033503 56 191 0.0 1.0 0.00 0.00 0.00 86 1023.7
20260502033003 56 0 0.0 0.0 0.00 0.00 0.00 86 1023.3
20260502032503 56 0 0.0 0.0 0.00 0.00 0.00 85 1023.5
20260502032003 55 0 0.0 0.0 0.00 0.00 0.00 85 1023.6
20260502031524 56 0 0.0 0.0 0.00 0.00 0.00 86 1023.6
20260502031003 56 235 0.0 1.0 0.00 0.00 0.00 85 1023.6
20260502030503 56 228 0.0 1.0 0.00 0.00 0.00 84 1023.6
20260502030024 56 206 0.0 1.0 0.00 0.00 0.00 84 1023.8
20260502025503 56 210 0.0 1.0 0.00 0.00 0.00 84 1023.7
20260502025003 55 228 0.0 1.0 0.00 0.00 0.00 85 1023.7
20260502024503 55 226 0.0 1.0 0.00 0.00 0.00 85 1023.7
20260502024004 55 219 0.0 1.0 0.00 0.00 0.00 86 1023.7
20260502023503 54 217 0.0 1.0 0.00 0.00 0.00 87 1023.6
20260502023003 54 0 0.0 0.0 0.00 0.00 0.00 87 1023.7
20260502022503 55 0 0.0 0.0 0.00 0.00 0.00 86 1023.7
20260502022003 55 0 0.0 0.0 0.00 0.00 0.00 86 1023.9
20260502021503 55 157 0.0 1.0 0.00 0.00 0.00 86 1023.7
20260502021003 54 180 0.0 1.0 0.00 0.00 0.00 87 1023.8
20260502020503 54 228 0.0 1.0 0.00 0.00 0.00 87 1023.9
20260502020003 54 209 0.0 2.0 0.00 0.00 0.00 87 1023.8
20260502015524 54 210 1.0 2.0 0.00 0.00 0.00 87 1023.8
20260502015003 54 222 1.0 2.0 0.00 0.00 0.00 87 1023.9
20260502014524 54 229 0.0 2.0 0.00 0.00 0.00 87 1024.0
20260502014003 54 231 0.0 1.0 0.00 0.00 0.00 87 1023.9
20260502013503 54 231 0.0 1.0 0.00 0.00 0.00 87 1024.0
20260502013003 54 229 0.0 1.0 0.00 0.00 0.00 86 1023.9
20260502012503 55 222 0.0 2.0 0.00 0.00 0.00 86 1023.9
20260502012003 55 223 1.0 2.0 0.00 0.00 0.00 85 1024.0
20260502011503 55 224 1.0 2.0 0.00 0.00 0.00 86 1024.0
20260502011003 55 225 0.0 1.0 0.00 0.00 0.00 86 1024.1
20260502010503 55 228 0.0 1.0 0.00 0.00 0.00 85 1024.1
20260502010005 56 0 0.0 0.0 0.00 0.00 0.00 85 1024.0
20260502005504 56 0 0.0 0.0 0.00 0.00 0.00 84 1024.0
20260502005025 56 228 0.0 1.0 0.00 0.00 0.00 83 1023.9
20260502004504 57 228 0.0 1.0 0.00 0.00 0.00 82 1023.8
20260502004004 57 161 0.0 3.0 0.00 0.00 0.00 82 1023.9
20260502003504 57 173 1.0 3.0 0.00 0.00 0.00 81 1024.1
20260502003004 57 202 0.0 2.0 0.00 0.00 0.00 81 1024.2
20260502002504 58 207 1.0 3.0 0.00 0.00 0.00 80 1024.2
20260502002004 58 198 1.0 3.0 0.00 0.00 0.00 80 1024.4
20260502001504 57 179 0.0 3.0 0.00 0.00 0.00 81 1024.5
20260502001004 57 186 0.0 1.0 0.00 0.00 0.00 81 1024.4
20260502000504 58 191 0.0 1.0 0.00 0.00 0.00 80 1024.5
20260502000005 57 210 0.0 2.0 0.00 0.00 0.00 80 1024.4
20260501235505 57 210 0.0 2.0 0.00 0.00 0.00 80 1024.6
20260501235025 57 228 0.0 2.0 0.00 0.00 0.00 82 1024.4
20260501234504 56 236 0.0 1.0 0.00 0.00 0.00 83 1024.8
20260501234025 56 231 0.0 1.0 0.00 0.00 0.00 83 1024.7
20260501233504 56 232 0.0 1.0 0.00 0.00 0.00 82 1024.7
20260501233004 56 233 0.0 1.0 0.00 0.00 0.00 82 1024.7
20260501232504 56 230 0.0 1.0 0.00 0.00 0.00 82 1024.7
20260501232004 57 226 0.0 1.0 0.00 0.00 0.00 81 1024.7
20260501231504 57 228 0.0 2.0 0.00 0.00 0.00 81 1024.6
20260501231004 57 228 0.0 2.0 0.00 0.00 0.00 81 1024.5
20260501230504 57 230 0.0 1.0 0.00 0.00 0.00 81 1024.6
20260501230004 57 229 1.0 2.0 0.00 0.00 0.00 81 1024.7
20260501225525 57 230 1.0 2.0 0.00 0.00 0.00 80 1024.5
20260501225004 57 231 0.0 1.0 0.00 0.00 0.00 80 1024.5
20260501224525 57 221 0.0 1.0 0.00 0.00 0.00 80 1024.6
20260501224004 58 224 0.0 1.0 0.00 0.00 0.00 80 1024.4
20260501223504 58 231 0.0 1.0 0.00 0.00 0.00 80 1024.6
20260501223004 58 225 0.0 1.0 0.00 0.00 0.00 80 1024.5
20260501222504 58 227 0.0 1.0 0.00 0.00 0.00 80 1024.1
20260501222025 58 232 0.0 1.0 0.00 0.00 0.00 80 1024.4
20260501221525 58 221 0.0 1.0 0.00 0.00 0.00 80 1024.5
20260501221004 59 213 0.0 1.0 0.00 0.00 0.00 79 1024.2
20260501220504 59 224 0.0 2.0 0.00 0.00 0.00 77 1024.4
20260501220004 58 228 1.0 2.0 0.00 0.00 0.00 79 1024.2
20260501215504 59 228 0.0 1.0 0.00 0.00 0.00 79 1024.1
20260501215004 59 227 0.0 1.0 0.00 0.00 0.00 78 1024.1
20260501214504 59 227 0.0 1.0 0.00 0.00 0.00 78 1024.4
20260501214025 59 225 0.0 1.0 0.00 0.00 0.00 78 1024.4
20260501213504 60 214 0.0 1.0 0.00 0.00 0.00 77 1024.1
20260501213004 60 203 0.0 2.0 0.00 0.00 0.00 76 1024.2
20260501212525 61 210 0.0 2.0 0.00 0.00 0.00 75 1024.4
20260501212004 61 207 0.0 2.0 0.00 0.00 0.00 75 1024.4
20260501211504 61 166 1.0 2.0 0.00 0.00 0.00 74 1024.4
20260501211004 61 138 1.0 3.0 0.00 0.00 0.00 74 1024.5
20260501210504 62 121 1.0 3.0 0.00 0.00 0.00 74 1024.2
20260501210004 62 98 0.0 2.0 0.00 0.01 0.00 75 1024.4
20260501205525 62 199 0.0 2.0 0.00 0.01 0.00 74 1024.5
20260501205004 61 206 0.0 1.0 0.00 0.02 0.00 76 1024.1
20260501204504 62 197 0.0 1.0 0.00 0.02 0.00 74 1024.2
20260501204004 62 231 0.0 1.0 0.00 0.02 0.00 74 1024.1
20260501203504 62 252 1.0 3.0 0.00 0.02 0.00 74 1024.4
20260501203025 62 255 1.0 3.0 0.00 0.02 0.00 73 1024.0
20260501202504 62 259 2.0 4.0 0.00 0.02 0.00 73 1024.0
20260501202004 62 268 2.0 4.0 0.00 0.02 0.00 73 1023.9
20260501201504 62 270 2.0 4.0 0.00 0.02 0.00 73 1023.9
20260501201004 62 269 1.0 4.0 0.00 0.02 0.00 73 1023.8
20260501200504 63 270 1.0 4.0 0.00 0.02 0.00 73 1023.6
20260501200025 63 280 1.0 4.0 0.00 0.02 0.00 71 1023.8
20260501195525 63 291 1.0 6.0 0.00 0.02 0.00 71 1023.9
20260501195004 64 262 1.0 6.0 0.00 0.02 0.00 69 1023.7
20260501194504 64 245 1.0 4.0 0.00 0.02 0.00 69 1023.7
20260501194004 64 295 2.0 10.0 0.00 0.02 0.00 69 1023.4
20260501193525 64 292 2.0 10.0 0.00 0.02 0.00 69 1023.7
20260501193025 64 269 2.0 7.0 0.00 0.02 0.00 69 1023.6
20260501192525 64 275 3.0 7.0 0.00 0.02 0.00 69 1023.3
20260501192004 64 298 3.0 10.0 0.00 0.02 0.00 69 1023.2
20260501191504 64 297 4.0 10.0 0.00 0.02 0.00 69 1023.2
20260501191004 64 297 3.0 7.0 0.00 0.02 0.00 68 1023.1